Find Kosmos-2098

NORAD ID: 20774 Int'l Des: 1990-078 Owner: PVO Country: SU operational
LEOPOLAR

Live-Position

3D-Globus wird geladen...

Über Kosmos-2098

Beschreibung wird geladen...

Nächste Überflüge

Passes for default location (London). Set your location on the main map for personalized predictions.

Höhenverlauf

Loading altitude history...

Zweizeiliger Elementsatz

1 20774U 90078A 26106.31300673 .00003176 00000-0 22106-3 0 9993
2 20774 82.9361 128.4492 0746303 39.5871 325.7409 13.89807824763924
Epoch: 16. Apr. 2026 • Age: 5 hours

Aktueller Status

Höhe 1338.6 km
Geschwindigkeit 7.00 km/s
Subsatellitenpunkt -79.18°S, 39.58°W
Startdatum 28. Aug. 1990
Alter 35.6 years
Typ other

Technische Details

Klassifizierung Payload
Masse 585.00 kg
Trockenmasse 585.00 kg
Gesamtmasse 585.00 kg
Länge 2.00 m
Durchmesser 2.00 m
Spannweite 2.00 m
Form Sphere
Hersteller YUZH
Bus-Typ Vektor
Phasenstatus In Orbit
Besitzer/Staat PVO/SU

Most Searched